Regional Weather Roundup
Issued by NWS Wakefield, VA

Home | Current Version | Previous Version | Graphics & Text | Print | Product List | Glossary On
Versions: 1 2 3 4 5 6 7 8 9 10 11 12 13 14 15 16 17 18 19 20 21 22 23 24 25 26 27 28 29 30 31 32 33 34 35 36 37 38 39 40 41 42 43 44 45 46 47 48 49 50
000
ASUS41 KAKQ 312010
RWRAKQ

REGIONAL WEATHER ROUNDUP
NATIONAL WEATHER SERVICE WAKEFIELD VA
300 PM EST SAT JAN 31 2015

Note: "fair" indicates few or no clouds below 12,000 feet with no
significant weather and/or obstructions to visibility. * = Denotes
station may not report precipitation (e.g., rain,snow,etc.),
thunder or fog.

VAZ042-051-052>054-056-312100-
NORTHERN VIRGINIA

CITY           SKY/WX    TMP DP  RH WIND       PRES   REMARKS
WASH NATIONAL  MOSUNNY   34   6  31 W9        30.29F
DULLES         MOSUNNY   33   9  36 NW12      30.26F WCI  24
FORT BELVOIR   SUNNY     34   7  32 NW12      30.28F
QUANTICO       SUNNY     36   6  28 VRB3      30.29F
FREDERICKSBRG* SUNNY     38   5  25 NW7       30.27F
STAFFORD*      SUNNY     36  -1  21 CALM      30.31F
WARRENTON      SUNNY     38  14  37 CALM      30.25F
CULPEPER*      SUNNY     37   3  23 CALM      30.26F
MANASSAS*      SUNNY     36   9  32 NW13      30.27F
LEESBURG*      SUNNY     32  14  47 NW8       30.27F
WINCHESTER     SUNNY     34   5  29 NW6       30.23F
FRONT ROYAL*   FAIR      36   9  32 CALM      30.21F
LURAY*         FAIR      41   9  26 SW3       30.21F
$$

VAZ048-049-060>072-079>083-312100-
CENTRAL AND SOUTH CENTRAL VIRGINIA

CITY           SKY/WX    TMP DP  RH WIND       PRES   REMARKS
RICHMOND       MOSUNNY   41   5  22 W10       30.27F
CHESTERFIELD*  FAIR      41   7  24 W8        30.28F
PETERSBURG*    SUNNY     43   1  17 SW8       30.27F
HANOVER        SUNNY     39   6  25 MISG      30.28F
TAPPAHANNOCK*  SUNNY     38  -6  15 W3        30.28F
QUINTON*       FAIR      38   4  24 W8        30.27F
CHARLOTTSVILLE SUNNY     41  -2  16 CALM      30.22F
GORDONSVILLE*  FAIR      40  -1  18 SW6       30.23F
ORANGE*        SUNNY     41   3  20 CALM      30.25F
LOUISA*        SUNNY     43   3  19 W9G16     30.23F
BUMPASS*       FAIR      39   3  22 NW6       30.25F
FARMVILLE*     SUNNY     46   1  15 SW5       30.25S
CREWE*         FAIR      40  -1  17 CALM      30.26S
FORT PICKETT*  FAIR      40   2  20 W5        30.26F
CHASE CITY*    FAIR      45   9  23 W7        30.27F
CLARKSVILLE*   FAIR      43   7  22 W6        30.27F
SOUTH HILL*    SUNNY     42   6  22 W3        30.33F
LAWRENCEVILLE* FAIR      42   3  19 W3        30.27F
EMPORIA*       SUNNY     43   7  22 W7        30.30F
$$

VAZ088>098-312100-
SOUTHEAST VIRGINIA

CITY           SKY/WX    TMP DP  RH WIND       PRES   REMARKS
NORFOLK        SUNNY     37   3  24 NW13      30.27F
VIRGINIA BEACH MOSUNNY   39   5  24 NW15G23   30.27S
NORFOLK NAVAL  MOSUNNY   41   6  23 NW16G23   30.29F
WEST POINT*    SUNNY     40  -2  17 W10       30.30F
SALUDA*        FAIR      34   7  32 NW8       30.27F
NEWPORT NEWS   SUNNY     40   7  25 W13       30.28F
LANGLEY AFB    SUNNY     37   8  30 W14G20    30.27F
FORT EUSTIS    SUNNY     38  13  34 NW12      30.26F
WILLIAMSBURG*    N/A     43  10  26 W12       30.29F
HR EXEC AP*    FAIR      39   9  28 NW8G17    30.30F
FRANKLIN*      SUNNY     41   7  24 W6        30.29F
WAKEFIELD      SUNNY     42   3  19 NW8       30.28F
$$

VAZ020-022-025-037-045-312100-
WEST CENTRAL AND SOUTHWEST VIRGINIA

CITY           SKY/WX    TMP DP  RH WIND       PRES   REMARKS
STAUNTON*      SUNNY     38   3  22 CALM      30.21F
WAYNESBORO*    FAIR      39   3  22 CALM      30.18F
HOT SPRINGS VA SUNNY     32  -5  20 W13G20    30.09S WCI  22
LYNCHBURG      SUNNY     43   2  18 W6        30.24F
DANVILLE       SUNNY     48   4  16 SW12      30.27F
SOUTH BOSTON*  FAIR      46   2  16 SW6       30.28F
MARTINSVILLE   SUNNY     49   7  18 S9        30.27F
ROANOKE        MOSUNNY   45   2  17 W9G20     30.25F
BLACKSBURG     SUNNY     38   5  25 W5        30.25F
DUBLIN*        SUNNY     41   2  19 W9        30.24F
MARION*        SUNNY     39  10  30 SW13G18   30.25S
HILLSVILLE*    SUNNY     40   1  20 W8G16     30.22S
RICHLANDS*     FAIR      35   9  34 SW5       30.24F
WISE*          PTSUNNY   39   7  26 S3        30.25S
ABINGDON*      MOSUNNY   42  11  28 W8        30.27F
$$

MDZ021>025-VAZ099-100-312100-
SOUTHERN MARYLAND AND THE DELMARVA PENINSULA

CITY           SKY/WX    TMP DP  RH WIND       PRES   REMARKS
PATUXENT RIVER SUNNY     33   2  26 NW16      30.27S WCI  23
BAY BRIDGE APT   N/A     32   7  34 NW13G18   30.27S WCI  22
LEONARDTOWN    SUNNY     32   3  29 W12G17    30.29S WCI  23
DOVER          SUNNY     29   6  37 W15G25    30.22S WCI  18
GEORGETOWN     SUNNY     30   3  31 NW14G26   30.22S WCI  19
EASTON         SUNNY     32   9  37 NW23G35   30.29F WCI  19
CAMBRIDGE      SUNNY     32   9  37 NW10G17   30.26S WCI  24
SALISBURY      SUNNY     33   7  33 W17G28    30.24R WCI  22
OCEAN CITY     SUNNY     32   5  32 NW15G28   30.21S WCI  22
WALLOPS ISLAND SUNNY     32   7  35 NW18G26   30.25R WCI  20
ACCOMACK*      SUNNY     32   9  37 NW18G31   30.26F WCI  20
$$

NCZ012>017-030>032-312100-
NORTH CENTRAL AND EASTERN NORTH CAROLINA

CITY           SKY/WX    TMP DP  RH WIND       PRES   REMARKS
ROANOKE RAPIDS FAIR      43   7  22 CALM      30.29F
RALEIGH        MOSUNNY   47   6  18 SW8       30.30F
ELIZABETH CITY SUNNY     40   8  26 W13G23    30.29S
AHOSKIE*       SUNNY     42   7  23 N3        30.30F
EDENTON*       SUNNY     42   7  24 NW12      30.30S
CURRITUCK*     SUNNY     39   1  20 W10       30.28F
KILL DEVIL HLS SUNNY     38   7  28 W8        30.27S
MANTEO         SUNNY     37   9  30 NW13G21   30.29S
CAPE HATTERAS  SUNNY     39  11  31 NW10G18   30.30S
TARBORO*       FAIR      45   7  21 W3G9      30.31F
GOLDSBORO      SUNNY     27  16  63 CALM      30.30S
WASHINGTON     SUNNY     43   8  23 W6        30.31S
GREENVILLE     SUNNY     45   9  23 W7        30.31F
NEW BERN       SUNNY     47   7  19 N8        30.32F
WILMINGTON     SUNNY     49   8  19 W10       30.32F
$$

VAZ048-312100-
ELSEWHERE

CITY           SKY/WX    TMP DP  RH WIND       PRES   REMARKS
HARRISBURG PA  MOSUNNY   25   8  48 NW18      30.23S WCI  11
BALTIMORE      MOSUNNY   30   6  36 W13G22    30.26F WCI  20
ANNAPOLIS      SUNNY     30   7  37 NW14G20   30.27S WCI  19
ANDREWS AFB    SUNNY     30   5  34 W12G21    30.26F WCI  21
PHILADELPHIA   SUNNY     28   3  34 W16G25    30.20F WCI  16
HENDERSON NC   SUNNY     44   3  18 W6G16     30.28F
GREENSBORO     PTSUNNY   49   0  13 W12       30.27F
ROCKY MOUNT    SUNNY     46   7  20 VRB3      30.30F
$$

VAZ100-312100-
MARINE

STATION/POSITION TIME  TEMP    WIND        PRES    WAVE   SWELL
                       AIR SEA DIR/SP/G            HT/PER HT/PER
                 (UTC) (F)     (DEG/KT/KT) (MB)    (FT/S) (FT/S)
BRANDYWINE LGT   2000   26 35  330/ 18/ 22 1022.8F
CAPE MAY NJ      2000   26 32              1022.4S
LEWES DE         2000   28 32  320/ 20/ 23 1022.8F
15NM E FENWICK I 2000   29 39              1022.0F   6/ 6
OCEAN-CITY-INLET 2000   30 33  330/ 12/ 17 1022.5S
WACHAPREAGUE VA  2000   32 32  310/  5/ 15 1024.7S
THOMAS POINT MD  2000   29 34  300/ 13/ 15 1025.9S
GOOSES REEF MD   2000   30     VRB 14/ 17  1024.3F
COVE POINT MD    2000   29     320/ 14/ 18 1024.9F
SOLOMONS ISLAND  2000      36                N/A
BISHOPS HEAD MD  2000   30 32  310/ 13/ 19 1024.5F
PINEY POINT MD   2000          320/ 14/ 15   N/A
POTOMAC MD       2000   31     320/ 19/ 23 1024.3S
CAMBRIDGE MD     2000   29 33  300/ 11/ 16 1024.8S
LEWISETTA VA     2000   32 34  340/  9/ 15 1025.2F
RAPPAHANNOCK LGT 2000          320/ 15/ 18 1025.3F
STINGRAY PT      2000   34     310/ 16/ 19 1025.4F
YORK RVR RNG VA  2000   35     310/ 18/ 22 1024.6R
YORKTOWN VA      2000   35 38  310/ 14/ 15 1025.1F
JAMESTOWN VA     2000   35     330/ 14/ 16   N/A
DOMINION TERM VA 2000   35     330/ 14/ 17 1025.4S
KIPTOPEKE VA     2000      40  310/ 14/ 18   N/A
CHES BAY BRIDGE  2000   35 38  300/ 10/ 14 1024.9S
CAPE HENRY VA    2000   34     290/ 12/ 15 1023.7S
CHESAPEAKE LGHT  1900   33     310/ 19/ 20 1025.8F
WILLOUBY STN VA  2000   35     300/ 13/ 15 1025.7S
S CRANEY ISL VA  2000          330/ 10/ 16 1025.1F
CAPE HENRY BUOY  2000      42                N/A     4/ 4
1ST LANDING BUOY 2000   35     310/ 17/ 23 1024.9R
CAPE CHARLES BUO 2000      39                N/A     3/ 3   2/ 8
OFFSHORE WE BUOY 2000      43                N/A     6/ 5   2/ 8
64NM E OF VA BCH 2000   33 48  320/ 23/ 29 1023.0F   9/ 8
DUCK PIER NC     2000   35 40  330/ 16/ 19 1024.3S
44100 DUCK FRF   2000      43                N/A     6/ 8   2/11
44056 DUCK FRF   2000      41                N/A     5/ 8   2/11
OREGON INLET NC  2000   36 39  300/ 12/ 15 1025.4S
HATTERAS NC      2000   36 40  330/ 13/ 16 1026.2R



USA.gov is the U.S. government's official web portal to all federal, state and local government web resources and services.